| time (UTC) | temp F | wind direction | speed MPH | gust MPH | rain 1hr in | rain 24hr in | rain mn in | humidity % | barometer mb |
| 20260901094507 | 70 | 205 | 4.0 | 7.0 | 0.00 | 0.00 | 0.00 | 61 | 1011.1 |
| 20260901093004 | 71 | 183 | 5.0 | 8.0 | 0.00 | 0.00 | 0.00 | 61 | 1011.1 |
| 20260901091503 | 71 | 188 | 5.0 | 8.0 | 0.00 | 0.00 | 0.00 | 59 | 1011.1 |
| 20260901090006 | 72 | 185 | 5.0 | 9.0 | 0.00 | 0.00 | 0.00 | 59 | 1011.1 |
| 20260901084623 | 72 | 195 | 5.0 | 10.0 | 0.00 | 0.00 | 0.00 | 59 | 1011.0 |
| 20260901083058 | 72 | 171 | 6.0 | 9.0 | 0.00 | 0.00 | 0.00 | 59 | 1010.8 |
| 20260901081556 | 72 | 193 | 6.0 | 9.0 | 0.00 | 0.00 | 0.00 | 58 | 1010.8 |
| 20260901080109 | 73 | 139 | 6.0 | 10.0 | 0.00 | 0.00 | 0.00 | 58 | 1010.8 |
| 20260901074604 | 72 | 183 | 6.0 | 9.0 | 0.00 | 0.00 | 0.00 | 59 | 1010.8 |
| 20260901073051 | 73 | 195 | 6.0 | 9.0 | 0.00 | 0.00 | 0.00 | 58 | 1010.9 |
| 20260901071549 | 73 | 205 | 5.0 | 9.0 | 0.00 | 0.00 | 0.00 | 57 | 1010.7 |
| 20260901070047 | 75 | 155 | 7.0 | 12.0 | 0.00 | 0.00 | 0.00 | 55 | 1010.7 |
| 20260901064547 | 76 | 179 | 7.0 | 10.0 | 0.00 | 0.00 | 0.00 | 54 | 1010.7 |
| 20260901063052 | 76 | 171 | 7.0 | 13.0 | 0.00 | 0.00 | 0.00 | 53 | 1010.7 |
| 20260901061543 | 75 | 189 | 8.0 | 11.0 | 0.00 | 0.00 | 0.00 | 54 | 1010.7 |
| 20260901060042 | 73 | 172 | 6.0 | 10.0 | 0.00 | 0.00 | 0.00 | 56 | 1010.8 |
| 20260901054539 | 74 | 154 | 5.0 | 9.0 | 0.00 | 0.00 | 0.00 | 54 | 1011.0 |
| 20260901053043 | 73 | 131 | 8.0 | 12.0 | 0.00 | 0.00 | 0.00 | 54 | 1010.8 |
| 20260901051531 | 72 | 146 | 7.0 | 10.0 | 0.00 | 0.00 | 0.00 | 56 | 1010.7 |
| 20260901050028 | 72 | 142 | 5.0 | 7.0 | 0.00 | 0.00 | 0.00 | 55 | 1010.6 |
| 20260901044526 | 72 | 180 | 3.0 | 5.0 | 0.00 | 0.00 | 0.00 | 54 | 1010.3 |
| 20260901043025 | 74 | 187 | 2.0 | 8.0 | 0.00 | 0.00 | 0.00 | 51 | 1010.3 |
| 20260901041525 | 77 | 164 | 3.0 | 7.0 | 0.00 | 0.00 | 0.00 | 48 | 1010.1 |
| 20260901040023 | 78 | 167 | 5.0 | 9.0 | 0.00 | 0.00 | 0.00 | 46 | 1009.9 |
| 20260901034524 | 78 | 189 | 6.0 | 9.0 | 0.00 | 0.00 | 0.00 | 46 | 1009.6 |
| 20260901033021 | 77 | 173 | 5.0 | 8.0 | 0.00 | 0.00 | 0.00 | 47 | 1009.4 |
| 20260901031526 | 76 | 158 | 3.0 | 6.0 | 0.00 | 0.00 | 0.00 | 48 | 1009.1 |
| 20260901030021 | 76 | 171 | 3.0 | 6.0 | 0.00 | 0.00 | 0.00 | 47 | 1008.8 |
| 20260901024522 | 77 | 167 | 4.0 | 7.0 | 0.00 | 0.00 | 0.00 | 46 | 1008.6 |
| 20260901023019 | 79 | 12 | 5.0 | 10.0 | 0.00 | 0.00 | 0.00 | 44 | 1008.3 |
| 20260901021526 | 80 | 12 | 7.0 | 10.0 | 0.00 | 0.00 | 0.00 | 42 | 1008.0 |
| 20260901020018 | 81 | 161 | 7.0 | 11.0 | 0.00 | 0.00 | 0.00 | 41 | 1007.8 |
| 20260901014518 | 83 | 116 | 7.0 | 11.0 | 0.00 | 0.00 | 0.00 | 39 | 1007.6 |
| 20260901013017 | 84 | 140 | 6.0 | 9.0 | 0.00 | 0.00 | 0.00 | 38 | 1007.3 |
| 20260901011516 | 86 | 156 | 7.0 | 11.0 | 0.00 | 0.00 | 0.00 | 36 | 1007.2 |
| 20260901010026 | 88 | 198 | 7.0 | 14.0 | 0.00 | 0.00 | 0.00 | 34 | 1007.1 |
| 20260901004515 | 90 | 175 | 9.0 | 15.0 | 0.00 | 0.00 | 0.00 | 33 | 1007.0 |
| 20260901003020 | 91 | 191 | 9.0 | 15.0 | 0.00 | 0.00 | 0.00 | 32 | 1006.9 |
| 20260901001524 | 92 | 123 | 7.0 | 13.0 | 0.00 | 0.00 | 0.00 | 31 | 1007.0 |
| 20260901000013 | 93 | 148 | 12.0 | 19.0 | 0.00 | 0.00 | 0.00 | 30 | 1006.9 |
| 20260831234512 | 93 | 202 | 11.0 | 23.0 | 0.00 | 0.00 | 0.00 | 29 | 1006.7 |
| 20260831233024 | 94 | 155 | 10.0 | 22.0 | 0.00 | 0.00 | 0.00 | 30 | 1006.7 |
| 20260831231518 | 94 | 142 | 18.0 | 26.0 | 0.00 | 0.00 | 0.00 | 29 | 1006.5 |
| 20260831230115 | 95 | 135 | 15.0 | 28.0 | 0.00 | 0.00 | 0.00 | 29 | 1006.5 |
| 20260831224508 | 95 | 167 | 16.0 | 25.0 | 0.00 | 0.00 | 0.00 | 30 | 1006.6 |
| 20260831223008 | 96 | 133 | 10.0 | 20.0 | 0.00 | 0.00 | 0.00 | 30 | 1006.6 |
| 20260831221507 | 95 | 199 | 10.0 | 18.0 | 0.00 | 0.00 | 0.00 | 30 | 1006.8 |
| 20260831220010 | 96 | 172 | 12.0 | 17.0 | 0.00 | 0.00 | 0.00 | 29 | 1006.8 |
| 20260831214505 | 96 | 128 | 13.0 | 21.0 | 0.00 | 0.00 | 0.00 | 29 | 1006.9 |
| 20260831213005 | 96 | 171 | 11.0 | 18.0 | 0.00 | 0.00 | 0.00 | 30 | 1007.0 |
| 20260831211504 | 95 | 188 | 11.0 | 17.0 | 0.00 | 0.00 | 0.00 | 31 | 1007.1 |
| 20260831210003 | 95 | 134 | 7.0 | 19.0 | 0.00 | 0.00 | 0.00 | 32 | 1007.3 |
| 20260831204503 | 96 | 221 | 9.0 | 18.0 | 0.00 | 0.00 | 0.00 | 31 | 1007.5 |
| 20260831203114 | 96 | 176 | 11.0 | 21.0 | 0.00 | 0.00 | 0.00 | 33 | 1007.7 |
| 20260831201600 | 95 | 246 | 8.0 | 18.0 | 0.00 | 0.00 | 0.00 | 33 | 1007.8 |
| 20260831200106 | 95 | 138 | 9.0 | 13.0 | 0.00 | 0.00 | 0.00 | 32 | 1008.1 |
| 20260831194627 | 94 | 138 | 9.0 | 25.0 | 0.00 | 0.00 | 0.00 | 32 | 1008.3 |
| 20260831193050 | 93 | 214 | 5.0 | 15.0 | 0.00 | 0.00 | 0.00 | 34 | 1008.5 |
| 20260831191549 | 93 | 221 | 9.0 | 17.0 | 0.00 | 0.00 | 0.00 | 34 | 1008.7 |
| 20260831190052 | 92 | 279 | 8.0 | 14.0 | 0.00 | 0.00 | 0.00 | 36 | 1008.8 |
| 20260831184541 | 92 | 182 | 7.0 | 16.0 | 0.00 | 0.00 | 0.00 | 37 | 1009.1 |
| 20260831183037 | 91 | 257 | 13.0 | 19.0 | 0.00 | 0.00 | 0.00 | 38 | 1009.2 |
| 20260831181536 | 90 | 193 | 5.0 | 17.0 | 0.00 | 0.00 | 0.00 | 39 | 1009.3 |
| 20260831180033 | 90 | 188 | 8.0 | 16.0 | 0.00 | 0.00 | 0.00 | 39 | 1009.4 |
| 20260831174533 | 89 | 234 | 10.0 | 16.0 | 0.00 | 0.00 | 0.00 | 39 | 1009.6 |
| 20260831173030 | 89 | 214 | 10.0 | 16.0 | 0.00 | 0.00 | 0.00 | 40 | 1009.7 |
| 20260831171526 | 87 | 175 | 7.0 | 14.0 | 0.00 | 0.00 | 0.00 | 42 | 1009.7 |
| 20260831170036 | 87 | 175 | 8.0 | 13.0 | 0.00 | 0.00 | 0.00 | 45 | 1009.8 |
| 20260831164524 | 86 | 221 | 8.0 | 15.0 | 0.00 | 0.00 | 0.00 | 45 | 1009.9 |
| 20260831163020 | 85 | 212 | 8.0 | 14.0 | 0.00 | 0.00 | 0.00 | 45 | 1009.9 |
| 20260831161516 | 84 | 202 | 5.0 | 10.0 | 0.00 | 0.00 | 0.00 | 48 | 1009.8 |
| 20260831160014 | 81 | 130 | 5.0 | 11.0 | 0.00 | 0.00 | 0.00 | 52 | 1009.8 |
| 20260831154526 | 80 | 194 | 6.0 | 9.0 | 0.00 | 0.00 | 0.00 | 54 | 1009.7 |
| 20260831153010 | 79 | 126 | 3.0 | 8.0 | 0.00 | 0.00 | 0.00 | 57 | 1009.6 |
| 20260831151510 | 79 | 117 | 3.0 | 8.0 | 0.00 | 0.00 | 0.00 | 56 | 1009.5 |
| 20260831150009 | 79 | 78 | 1.0 | 9.0 | 0.00 | 0.00 | 0.00 | 57 | 1009.5 |
| 20260831144508 | 79 | 58 | 1.0 | 6.0 | 0.00 | 0.00 | 0.00 | 59 | 1009.7 |
| 20260831143007 | 77 | 53 | 0.0 | 8.0 | 0.00 | 0.00 | 0.00 | 61 | 1009.7 |
| 20260831141504 | 74 | 342 | 5.0 | 12.0 | 0.00 | 0.00 | 0.00 | 64 | 1009.2 |
| 20260831140003 | 73 | 327 | 11.0 | 14.0 | 0.00 | 0.00 | 0.00 | 67 | 1008.9 |
| 20260831134502 | 71 | 328 | 9.0 | 12.0 | 0.00 | 0.00 | 0.00 | 70 | 1009.0 |
| 20260831133104 | 69 | 317 | 8.0 | 11.0 | 0.00 | 0.00 | 0.00 | 72 | 1009.0 |
| 20260831131603 | 67 | 327 | 6.0 | 10.0 | 0.00 | 0.00 | 0.00 | 74 | 1008.9 |
| 20260831130101 | 66 | 328 | 6.0 | 13.0 | 0.00 | 0.00 | 0.00 | 74 | 1008.7 |
| 20260831124606 | 66 | 328 | 9.0 | 12.0 | 0.00 | 0.00 | 0.00 | 74 | 1008.5 |
| 20260831123055 | 66 | 317 | 8.0 | 11.0 | 0.00 | 0.00 | 0.00 | 74 | 1008.4 |
| 20260831121552 | 65 | 327 | 7.0 | 10.0 | 0.00 | 0.00 | 0.00 | 73 | 1008.6 |
| 20260831120054 | 66 | 322 | 8.0 | 11.0 | 0.00 | 0.00 | 0.00 | 72 | 1008.5 |
| 20260831114547 | 66 | 317 | 7.0 | 10.0 | 0.00 | 0.00 | 0.00 | 71 | 1008.6 |
| 20260831113048 | 67 | 340 | 5.0 | 9.0 | 0.00 | 0.00 | 0.00 | 70 | 1008.7 |
| 20260831111543 | 67 | 307 | 5.0 | 8.0 | 0.00 | 0.00 | 0.00 | 70 | 1008.6 |
| 20260831110043 | 68 | 320 | 4.0 | 6.0 | 0.00 | 0.00 | 0.00 | 68 | 1008.6 |
| 20260831104550 | 69 | 323 | 5.0 | 8.0 | 0.00 | 0.00 | 0.00 | 66 | 1008.8 |
| 20260831103035 | 69 | 318 | 5.0 | 10.0 | 0.00 | 0.00 | 0.00 | 65 | 1008.8 |
| 20260831101532 | 71 | 323 | 5.0 | 6.0 | 0.00 | 0.00 | 0.00 | 61 | 1008.9 |
| 20260831100030 | 72 | 323 | 4.0 | 8.0 | 0.00 | 0.00 | 0.00 | 57 | 1008.9 |